This demonstration page uses our WeatherBlox Daily Observations layout. Learn more.

Left ArrowRight Arrow

34.74481, -87.66753

Hourly Observations for March 2, 2021

Temp ( °F °C ) Dew Point ( °F °C ) Humidity (%) Winds ( mph kmh ) Pressure ( in mb ) Visibility ( mi km ) Precip ( " mm )
12:53 am 00:53 Clear 43 6.1 30 -1.1 60 60 NNE 7 11 30.30 1026 10 16 0.00 0.00
1:53 am 01:53 Clear 43 6.1 28 -2.2 56 56 NE 7 11 30.28 1026 10 16 0.00 0.00
3:53 am 03:53 Clear 42 5.6 27 -2.8 55 55 ENE 6 9 30.26 1025 10 16 0.00 0.00
4:53 am 04:53 Clear 42 5.6 28 -2.2 58 58 ENE 6 9 30.27 1025 10 16 0.00 0.00
5:53 am 05:53 Clear 42 5.6 27 -2.8 55 55 ENE 8 13 30.27 1025 10 16 0.00 0.00
6:53 am 06:53 Sunny 42 5.6 26 -3.3 53 53 NE 7 11 30.27 1025 10 16 0.00 0.00
7:53 am 07:53 Sunny 42 5.6 27 -2.8 55 55 NE 3 6 30.29 1026 10 16 0.00 0.00
8:53 am 08:53 Sunny 43 6.1 26 -3.3 51 51 NE 7 11 30.29 1026 10 16 0.00 0.00
9:53 am 09:53 Sunny 45 7.2 28 -2.2 52 52 E 8 13 30.27 1025 10 16 0.00 0.00
10:53 am 10:53 Sunny 49 9.4 26 -3.3 41 41 E 10 17 30.26 1025 10 16 0.00 0.00
11:53 am 11:53 Sunny 50 10 26 -3.3 39 39 N 7 11 30.22 1023 10 16 0.00 0.00
12:53 pm 12:53 Cloudy 51 10.6 26 -3.3 38 38 ENE 6 9 30.17 1022 10 16 0.00 0.00
1:53 pm 13:53 Cloudy 53 11.7 27 -2.8 37 37 NE 8 13 30.15 1021 10 16 0.00 0.00
2:53 pm 14:53 Cloudy 52 11.1 26 -3.3 37 37 N 7 11 30.11 1020 10 16 0.00 0.00
3:53 pm 15:53 Cloudy with Light Rain 51 10.6 25 -3.9 36 36 N 6 9 30.11 1020 10 16 0.00 0.00
4:53 pm 16:53 Cloudy 50 10 29 -1.7 44 44 NNW 3 6 30.13 1020 10 16 0.00 0.00
5:53 pm 17:53 Cloudy 49 9.4 35 1.7 59 59 Calm 30.14 1021 10 16 0.00 0.00
6:53 pm 18:53 Cloudy 48 8.9 36 2.2 63 63 Calm 30.14 1021 10 16 0.00 0.00
7:53 pm 19:53 Cloudy with Light Rain 47 8.3 38 3.3 71 71 Calm 30.14 1021 7 11 0.02 0.51
8:53 pm 20:53 Cloudy 45 7.2 35 1.7 68 68 WNW 6 9 30.14 1021 10 16 0.01 0.25
9:53 pm 21:53 Cloudy 45 7.2 34 1.1 66 66 W 7 11 30.15 1021 10 16 0.00 0.00
10:53 pm 22:53 Cloudy 46 7.8 35 1.7 66 66 SSW 3 6 30.12 1020 10 16 0.00 0.00
11:53 pm 23:53 Mostly Cloudy 44 6.7 34 1.1 68 68 N 3 6 30.11 1020 10 16 0.00 0.00

Powered by AerisWeather